N4877P KGKT-KAVL

Flight info

Callsign N4877P
Flight time 0h 26m
Altitude 7500
Route 3534N08330W
Aircraft BE58/L-SDFGRY/C

Departure

Time 2026-04-26 20:28
Airport Gatlinburg-Pigeon Forge Airport (KGKT)

Arrival

Time 2026-04-26 20:55
Airport Asheville Regional Airport (KAVL)
Time Latitude Longitude Altitude Speed Heading
2026-04-26 20:16 35.85811 -83.52502 1001 ft 0 kts 137°
2026-04-26 20:23 35.85811 -83.52501 1001 ft 0 kts 137°
2026-04-26 20:23 35.85799 -83.52518 1001 ft 6 kts 258°
2026-04-26 20:24 35.85798 -83.52599 1001 ft 11 kts 274°
2026-04-26 20:24 35.85810 -83.52702 1001 ft 12 kts 277°
2026-04-26 20:24 35.85823 -83.52808 1001 ft 12 kts 279°
2026-04-26 20:24 35.85837 -83.52915 1002 ft 12 kts 278°
2026-04-26 20:25 35.85849 -83.53012 1004 ft 11 kts 280°
2026-04-26 20:25 35.85857 -83.53075 1004 ft 11 kts 278°
2026-04-26 20:25 35.85875 -83.53213 1003 ft 13 kts 278°
2026-04-26 20:25 35.85889 -83.53332 1001 ft 15 kts 279°
2026-04-26 20:26 35.85903 -83.53469 998 ft 17 kts 277°
2026-04-26 20:26 35.85924 -83.53614 997 ft 17 kts 278°
2026-04-26 20:26 35.85943 -83.53744 997 ft 6 kts 281°
2026-04-26 20:26 35.85935 -83.53770 997 ft 0 kts 199°
2026-04-26 20:27 35.85894 -83.53765 997 ft 15 kts 123°
2026-04-26 20:28 35.85841 -83.53397 1000 ft 77 kts 98°
2026-04-26 20:28 35.85704 -83.52678 1226 ft 85 kts 101°
2026-04-26 20:28 35.85528 -83.51985 1509 ft 82 kts 101°
2026-04-26 20:28 35.85246 -83.51390 1749 ft 88 kts 142°
2026-04-26 20:29 35.84537 -83.51265 1741 ft 123 kts 199°
2026-04-26 20:29 35.83807 -83.51685 2250 ft 104 kts 203°
2026-04-26 20:29 35.83184 -83.51994 2645 ft 94 kts 192°
2026-04-26 20:29 35.82539 -83.52161 2915 ft 97 kts 184°
2026-04-26 20:30 35.81820 -83.52238 3127 ft 108 kts 178°
2026-04-26 20:30 35.81044 -83.52250 3382 ft 116 kts 175°
2026-04-26 20:30 35.80218 -83.52219 3662 ft 120 kts 173°
2026-04-26 20:30 35.79385 -83.52162 3985 ft 120 kts 172°
2026-04-26 20:31 35.78561 -83.52092 4335 ft 116 kts 171°
2026-04-26 20:31 35.77769 -83.52016 4662 ft 114 kts 171°
2026-04-26 20:31 35.76979 -83.51937 4979 ft 113 kts 171°
2026-04-26 20:31 35.76202 -83.51858 5272 ft 113 kts 171°
2026-04-26 20:32 35.75411 -83.51775 5554 ft 114 kts 171°
2026-04-26 20:32 35.74620 -83.51692 5832 ft 115 kts 171°
2026-04-26 20:32 35.73820 -83.51609 6117 ft 115 kts 171°
2026-04-26 20:32 35.73026 -83.51526 6398 ft 114 kts 171°
2026-04-26 20:33 35.72236 -83.51444 6674 ft 114 kts 169°
2026-04-26 20:33 35.71458 -83.51363 6940 ft 113 kts 169°
2026-04-26 20:33 35.70668 -83.51279 7184 ft 115 kts 169°
2026-04-26 20:33 35.69859 -83.51193 7406 ft 118 kts 169°
2026-04-26 20:34 35.69008 -83.51103 7534 ft 131 kts 169°
2026-04-26 20:34 35.68018 -83.50996 7506 ft 150 kts 170°
2026-04-26 20:34 35.66943 -83.50886 7504 ft 161 kts 171°
2026-04-26 20:34 35.65790 -83.50768 7501 ft 170 kts 171°
2026-04-26 20:35 35.64597 -83.50645 7500 ft 175 kts 171°
2026-04-26 20:35 35.63349 -83.50516 7502 ft 179 kts 171°
2026-04-26 20:35 35.62095 -83.50385 7500 ft 182 kts 171°
2026-04-26 20:35 35.60815 -83.50252 7498 ft 185 kts 171°
2026-04-26 20:36 35.59534 -83.50118 7502 ft 186 kts 171°
2026-04-26 20:36 35.58226 -83.49982 7506 ft 187 kts 171°
2026-04-26 20:36 35.56937 -83.49783 7490 ft 185 kts 157°
2026-04-26 20:36 35.56031 -83.48779 7526 ft 178 kts 116°
2026-04-26 20:37 35.55663 -83.47332 7517 ft 179 kts 101°
2026-04-26 20:37 35.55428 -83.45809 7511 ft 179 kts 99°
2026-04-26 20:37 35.55222 -83.44304 7511 ft 179 kts 98°
2026-04-26 20:37 35.55026 -83.42796 7513 ft 178 kts 98°
2026-04-26 20:38 35.54832 -83.41286 7513 ft 179 kts 98°
2026-04-26 20:38 35.54641 -83.39783 7516 ft 178 kts 98°
2026-04-26 20:38 35.54447 -83.38262 7515 ft 178 kts 98°
2026-04-26 20:38 35.54254 -83.36748 7513 ft 178 kts 98°
2026-04-26 20:39 35.54062 -83.35242 7517 ft 177 kts 98°
2026-04-26 20:39 35.53872 -83.33752 7518 ft 175 kts 98°
2026-04-26 20:39 35.53686 -83.32295 7519 ft 174 kts 98°
2026-04-26 20:39 35.53498 -83.30826 7518 ft 173 kts 98°
2026-04-26 20:40 35.53310 -83.29360 7523 ft 172 kts 98°
2026-04-26 20:40 35.53123 -83.27902 7523 ft 172 kts 98°
2026-04-26 20:40 35.52938 -83.26464 7523 ft 171 kts 98°
2026-04-26 20:40 35.52752 -83.25011 7527 ft 171 kts 98°
2026-04-26 20:41 35.52569 -83.23586 7527 ft 171 kts 98°
2026-04-26 20:41 35.52383 -83.22146 7532 ft 170 kts 98°
2026-04-26 20:41 35.52198 -83.20704 7533 ft 171 kts 98°
2026-04-26 20:41 35.52011 -83.19258 7532 ft 171 kts 98°
2026-04-26 20:42 35.51827 -83.17831 7531 ft 171 kts 98°
2026-04-26 20:42 35.51639 -83.16377 7540 ft 171 kts 98°
2026-04-26 20:42 35.51453 -83.14940 7534 ft 171 kts 98°
2026-04-26 20:42 35.51266 -83.13492 7532 ft 171 kts 98°
2026-04-26 20:43 35.51079 -83.12052 7532 ft 171 kts 98°
2026-04-26 20:43 35.50892 -83.10607 7533 ft 171 kts 98°
2026-04-26 20:43 35.50705 -83.09170 7531 ft 171 kts 98°
2026-04-26 20:43 35.50518 -83.07732 7533 ft 171 kts 98°
2026-04-26 20:44 35.50330 -83.06280 7530 ft 171 kts 98°
2026-04-26 20:44 35.50144 -83.04858 7530 ft 171 kts 98°
2026-04-26 20:44 35.49954 -83.03397 7531 ft 171 kts 98°
2026-04-26 20:44 35.49767 -83.01965 7527 ft 171 kts 98°
2026-04-26 20:45 35.49578 -83.00518 7525 ft 172 kts 98°
2026-04-26 20:45 35.49389 -82.99069 7524 ft 172 kts 98°
2026-04-26 20:45 35.49200 -82.97626 7522 ft 172 kts 98°
2026-04-26 20:45 35.49009 -82.96165 7520 ft 172 kts 98°
2026-04-26 20:46 35.48820 -82.94724 7521 ft 172 kts 98°
2026-04-26 20:46 35.48629 -82.93276 7522 ft 171 kts 97°
2026-04-26 20:46 35.48439 -82.91823 7524 ft 171 kts 98°
2026-04-26 20:46 35.48249 -82.90376 7525 ft 172 kts 98°
2026-04-26 20:47 35.48057 -82.88918 7357 ft 177 kts 98°
2026-04-26 20:47 35.47925 -82.87917 7219 ft 180 kts 98°
2026-04-26 20:47 35.47655 -82.85873 6960 ft 183 kts 98°
2026-04-26 20:47 35.47448 -82.84302 6762 ft 185 kts 98°
2026-04-26 20:48 35.47245 -82.82762 6575 ft 186 kts 99°
2026-04-26 20:48 35.47035 -82.81181 6271 ft 190 kts 99°
2026-04-26 20:48 35.46823 -82.79588 5916 ft 188 kts 99°
2026-04-26 20:48 35.46615 -82.78017 5589 ft 187 kts 98°
2026-04-26 20:49 35.46407 -82.76445 5251 ft 185 kts 98°
2026-04-26 20:49 35.46199 -82.74882 4904 ft 184 kts 98°
2026-04-26 20:49 35.46005 -82.73418 4959 ft 172 kts 98°
2026-04-26 20:49 35.45813 -82.71971 5091 ft 164 kts 98°
2026-04-26 20:50 35.45629 -82.70589 5032 ft 164 kts 98°
2026-04-26 20:50 35.45448 -82.69231 5040 ft 156 kts 98°
2026-04-26 20:50 35.45277 -82.67950 5006 ft 152 kts 98°
2026-04-26 20:50 35.45102 -82.66638 4723 ft 155 kts 98°
2026-04-26 20:51 35.44930 -82.65351 4438 ft 155 kts 97°
2026-04-26 20:51 35.44755 -82.64041 4134 ft 155 kts 98°
2026-04-26 20:51 35.44581 -82.62738 3894 ft 154 kts 98°
2026-04-26 20:51 35.44408 -82.61453 3614 ft 154 kts 98°
2026-04-26 20:52 35.44242 -82.60177 3369 ft 152 kts 93°
2026-04-26 20:52 35.44079 -82.58906 3062 ft 142 kts 97°
2026-04-26 20:52 35.43934 -82.57862 3136 ft 118 kts 97°
2026-04-26 20:52 35.43791 -82.56791 3157 ft 138 kts 97°
2026-04-26 20:53 35.43418 -82.55617 3222 ft 153 kts 139°
2026-04-26 20:53 35.42421 -82.55247 3431 ft 143 kts 166°
2026-04-26 20:53 35.41459 -82.55026 3265 ft 138 kts 163°
2026-04-26 20:53 35.40542 -82.54691 2987 ft 130 kts 133°
2026-04-26 20:54 35.40418 -82.53758 2815 ft 118 kts 70°
2026-04-26 20:54 35.40771 -82.52869 2656 ft 112 kts 30°
2026-04-26 20:54 35.41478 -82.53168 2466 ft 125 kts 324°
2026-04-26 20:54 35.42208 -82.53597 2211 ft 112 kts 343°
2026-04-26 20:55 35.42902 -82.53894 2115 ft 93 kts 341°
2026-04-26 20:55 35.43369 -82.54093 2146 ft 48 kts 340°
2026-04-26 20:55 35.43555 -82.54146 2154 ft 10 kts 63°
2026-04-26 20:55 35.43594 -82.54062 2154 ft 12 kts 12°
2026-04-26 20:56 35.43657 -82.54002 2155 ft 14 kts 69°
2026-04-26 20:56 35.43722 -82.53940 2157 ft 11 kts 22°
2026-04-26 20:56 35.43800 -82.53954 2160 ft 11 kts 351°
2026-04-26 20:56 35.43839 -82.53927 2160 ft 0 kts 40°